Location: Possagno
(45.8500°N, 11.8667°E)
Time: 01:23:35
(UTC+00:00)

Envisat - Visible Passes

Search period start: 01 August 2021 00:00
Search period end: 11 August 2021 00:00
Orbit: 764 x 766 km, 98.2° (Epoch: 31 July)

Date Brightness Start Highest point End Pass type
(mag) Time Alt. Az. Time Alt. Az. Time Alt. Az.
01 Aug 5.9 03:07:42 10° ENE 03:10:00 13° E 03:12:16 10° ESE visible
06 Aug 5.7 03:20:39 10° NE 03:24:02 18° E 03:27:25 10° SE visible
09 Aug 5.9 03:09:47 10° ENE 03:12:25 14° E 03:15:01 10° ESE visible
